This is the latest recevied weather packets stored in our database for station/object SP2WPY-13. If no packets are shown the sender has not sent any weather packets the latest 10 day(s).
| Time | Temp. | Humidity | Pressure | Rain* | Wind** | Luminosity | Snow |
|---|---|---|---|---|---|---|---|
| 1787571332 | 21.11° C | 64% | 1022.2 hPa | - | - | - | - |
| 1787571010 | 21.11° C | 64% | 1022.2 hPa | - | - | - | - |
| 1787570735 | 21.11° C | 66% | 1022.2 hPa | - | - | - | - |
| 1787570415 | 20.56° C | 67% | 1022.2 hPa | - | - | - | - |
| 1787570142 | 20° C | 66% | 1022.2 hPa | - | - | - | - |
| 1787569821 | 20° C | 67% | 1022.2 hPa | - | - | - | - |
| 1787569502 | 20° C | 68% | 1022.2 hPa | - | - | - | - |
| 1787569228 | 21.11° C | 64% | 1022.2 hPa | - | - | - | - |
| 1787568908 | 20.56° C | 64% | 1022.2 hPa | - | - | - | - |
| 1787568635 | 20° C | 60% | 1022.2 hPa | - | - | - | - |
| 1787568315 | 20.56° C | 64% | 1022.1 hPa | - | - | - | - |
| 1787568040 | 21.11° C | 66% | 1022.1 hPa | - | - | - | - |
| 1787567722 | 21.11° C | 67% | 1022.1 hPa | - | - | - | - |
| 1787567400 | 20.56° C | 70% | 1022.1 hPa | - | - | - | - |
| 1787567128 | 20° C | 75% | 1022.1 hPa | - | - | - | - |
| 1787566808 | 19.44° C | 71% | 1022.1 hPa | - | - | - | - |
| 1787566533 | 20° C | 68% | 1022 hPa | - | - | - | - |
| 1787566215 | 20° C | 69% | 1022.1 hPa | - | - | - | - |
| 1787565938 | 20° C | 74% | 1022 hPa | - | - | - | - |
| 1787565619 | 20° C | 74% | 1022 hPa | - | - | - | - |
| 1787565344 | 19.44° C | 75% | 1022 hPa | - | - | - | - |
| 1787565025 | 18.89° C | 80% | 1022.1 hPa | - | - | - | - |
| 1787564705 | 18.89° C | 87% | 1022 hPa | - | - | - | - |
| 1787564432 | 18.33° C | 84% | 1022.1 hPa | - | - | - | - |
| 1787564111 | 18.33° C | 84% | 1022.1 hPa | - | - | - | - |
* Rain since midnight (hover to see other rain measurements)
** Current wind speed in m/s (hover to see current wind gust speed)